Location: Aydie
(43.5695°N, 0.1043°W)
Time: 06:53:12
(UTC+00:00)

COSMOS 2406 - Pass Details

Date: 17 November 2025
Orbit: 845 x 859 km, 71.0° (Epoch: 13 December)

Event Time Altitude Azimuth Distance (km) Brightness Sun altitude
Rises 18:19:22 0° 338° (NNW) 3,415 6.5 -19.1°
Reaches altitude 10° 18:21:55 10° 344° (NNW) 2,477 5.7 -19.6°
Maximum altitude 18:27:26 51° 60° (ENE) 1,064 3.3 -20.5°
Enters shadow 18:29:09 38° 108° (ESE) 1,271 3.6 -20.9°
